SKYSAT-C12 (43797 NORAD) Tracking and Keplerian Element Data

This shows tracking and keplerian element data for the satellite.

Feedback or suggestion? Click here.




ElementValue
Catalog43797
NameSKYSAT-C12
Epoch Orbit34517
Epoch Day35.09535246
Epoch Year2025
RAAN77.4941
Inclination96.9861
Eccentricity0.0006804
Argument of Perigee152.4736
Mean Anonmoly207.6869
Mean Motion15.33637976
Decay Rate0.000557
L11 43797U 18099AR 25035.09535246 .00055700 00000+0 17035-2 0 9990
L22 43797 96.9861 77.4941 0006804 152.4736 207.6869 15.33637976345177



Live tracking and technical data element details for SKYSAT-C12 (NORAD 43797). SKYSAT-C12 can be tracked NOW for your location showing map with azimuth and elevation plus other details from your city location.







IsCatalogInMostPopularTable: catalog: 43797, numindb: 336
Update: records affected: 1



GetName: 43797 SKYSAT-C12

Hit Count: updated at: Fri, 16 May 2025 10:25:09 GMT